map of HGD home
HGD - Airport
Location
City:  Hughenden, Queensland, Australia
ICAO:YHUG
IATA:HGD

Details
Type:Airport (Aerodrome, Airfield)
Latitude:20°48'54"S (-20.814999)
Longitude:144°13'31"E (144.225278)
Datum:WGS 1984
Elevation:1043 ft (318 m)
Variation:6.96°E (WMM2015v2 magnetic declination)
-0.03° annual change
Runways:2
Longest:5394 × 98 ft (1644 × 30 m), paved

Time
Time Zone:UTC+10
Local Time:

Weather
METAR:YHUG 041400Z AUTO 10018KT //// // OVC015 23/20 Q1002

Related Locations
Nearby:
Farthest:NTO: 11705 mi / 18837 km
Ponta do Sol [Agostinho Neto], Ribeira Grande, Santo Antão, CV

Find:

   beyond  
but within

Other Information
Maps:
NOTAMs:
Links:
Sources:

  
  • flag of Australia
  • flag of Queensland
  

Sectional Chart

Flight Planning
at skyvector.com

Satellite Image

Google Maps Satellite view

 

Copyright © 2004-2019 Karl L. Swartz. All rights reserved.
The Great Circle Mapper name and logo are trademarks of the Great Circle Mapper.
All other trademarks mentioned herein belong to their respective owners.
Please see credits for attibutions and further copyright information.

  Follow gcmap on Facebook Follow gcmap on Twitter GCmap on LinkedIn

hCard Microformat

Geo Microformat